GW0683 Weather Reports


time (UTC)temp
C
wind
direction
speed
KPH
gust
KPH
rain 1hr
cm
rain 24hr
cm
rain mn
cm
humidity
%
barometer
mb
20260506221553 16 49 4.8 14.5 0.00 0.00 0.00 83 1012.8
20260506220051 16 248 3.2 12.9 0.00 0.00 0.00 83 1012.4
20260506214541 16 318 1.6 12.9 0.00 0.00 0.00 83 1012.7
20260506213049 16 298 4.8 11.3 0.00 0.00 0.00 83 1012.6
20260506211554 16 25 6.4 14.5 0.00 0.00 0.00 83 1012.5
20260506210047 17 25 3.2 11.3 0.00 0.00 0.00 83 1012.7
20260506204545 17 330 3.2 11.3 0.00 0.00 0.00 83 1012.6
20260506203043 17 323 1.6 12.9 0.00 0.00 0.00 82 1012.8
20260506201545 17 41 3.2 16.1 0.00 0.00 0.00 83 1012.9
20260506200051 18 312 3.2 11.3 0.00 0.00 0.00 82 1012.7
20260506194553 18 22 6.4 14.5 0.00 0.00 0.00 82 1012.7
20260506193052 18 13 4.8 16.1 0.00 0.00 0.00 81 1012.7
20260506191548 18 289 9.7 20.9 0.00 0.00 0.00 82 1012.4
20260506190045 18 288 9.7 19.3 0.00 0.00 0.00 81 1012.6
20260506184554 21 4 8.0 20.9 0.00 0.00 0.00 78 1012.6
20260506183047 23 18 6.4 14.5 0.00 0.00 0.00 77 1012.2
20260506181600 24 32 1.6 9.7 0.00 0.00 0.00 73 1012.0
20260506180050 24 314 3.2 11.3 0.00 0.00 0.00 72 1011.6
20260506174549 23 56 3.2 11.3 0.00 0.00 0.00 73 1011.8
20260506173117 23 340 3.2 9.7 0.00 0.00 0.00 74 1011.6
20260506171556 22 77 3.2 12.9 0.00 0.00 0.00 76 1011.5
20260506170104 22 59 1.6 9.7 0.00 0.00 0.00 75 1011.8
20260506164548 21 58 3.2 12.9 0.00 0.00 0.00 76 1011.8
20260506163047 20 21 6.4 17.7 0.00 0.00 0.00 78 1012.0
20260506161550 19 62 3.2 17.7 0.00 0.00 0.00 85 1012.0
20260506160059 18 305 6.4 17.7 0.00 0.00 0.00 86 1012.7
20260506154551 18 309 4.8 12.9 0.00 0.00 0.00 86 1015.3
20260506153053 19 15 6.4 20.9 0.00 0.00 0.00 84 1011.8
20260506151551 25 297 1.6 6.4 0.00 0.00 0.00 84 1011.6
20260506150050 25 0 0.0 1.6 0.00 0.00 0.00 84 1011.0
20260506144550 25 0 0.0 4.8 0.00 0.00 0.00 85 1010.7
20260506143051 25 162 0.0 4.8 0.00 0.00 0.00 86 1010.3
20260506141545 24 98 1.6 8.0 0.00 0.00 0.00 88 1010.0
20260506140049 23 127 0.0 3.2 0.00 0.00 0.00 91 1010.1
20260506134548 23 0 0.0 0.0 0.00 0.00 0.00 93 1010.1
20260506133048 23 0 0.0 1.6 0.00 0.00 0.00 93 1009.6
20260506131557 23 0 0.0 1.6 0.00 0.00 0.00 94 1009.5
20260506130055 23 0 0.0 0.0 0.00 0.00 0.00 94 1009.3
20260506124552 22 0 0.0 0.0 0.00 0.00 0.00 94 1009.2
20260506123048 22 0 0.0 0.0 0.00 0.00 0.00 93 1009.0
20260506121544 22 0 0.0 0.0 0.00 0.00 0.00 93 1009.0
20260506120050 22 0 0.0 0.0 0.00 0.00 0.00 93 1009.2
20260506114547 22 0 0.0 0.0 0.00 0.00 0.00 92 1009.2
20260506113049 23 0 0.0 1.6 0.00 0.00 0.00 91 1009.1
20260506111552 23 0 0.0 0.0 0.00 0.00 0.00 91 1009.2
20260506110047 23 0 0.0 0.0 0.00 0.00 0.00 90 1009.1
20260506104550 23 0 0.0 1.6 0.00 0.00 0.00 89 1008.9
20260506103047 23 0 0.0 3.2 0.00 0.00 0.00 88 1008.8
20260506101551 23 0 0.0 3.2 0.00 0.00 0.00 88 1008.7
20260506100051 23 0 0.0 8.0 0.00 0.00 0.00 88 1008.3
20260506094559 23 0 0.0 8.0 0.00 0.00 0.00 87 1008.2
20260506093052 23 0 0.0 4.8 0.00 0.00 0.00 88 1008.2
20260506091551 23 0 0.0 3.2 0.00 0.00 0.00 88 1008.0
20260506090046 23 0 0.0 9.7 0.00 0.00 0.00 88 1007.9
20260506084557 23 184 0.0 9.7 0.00 0.00 0.00 88 1007.6
20260506083058 23 148 1.6 6.4 0.00 0.00 0.00 88 1007.8
20260506081551 23 240 0.0 8.0 0.00 0.00 0.00 87 1007.8
20260506073054 23 122 1.6 14.5 0.00 0.00 0.00 87 1008.0
20260506071555 23 150 0.0 11.3 0.00 0.00 0.00 87 1008.1
20260506061545 23 118 1.6 14.5 0.00 0.00 0.00 87 1008.1
20260506044544 23 89 1.6 11.3 0.00 0.00 0.00 88 1008.3
20260506043044 23 112 0.0 11.3 0.00 0.00 0.00 87 1008.2
20260506041550 24 159 0.0 3.2 0.00 0.00 0.00 87 1008.2
20260506040049 24 154 1.6 12.9 0.00 0.00 0.00 86 1007.9
20260506034547 24 126 1.6 6.4 0.00 0.00 0.00 86 1007.7
20260506033046 25 160 1.6 9.7 0.00 0.00 0.00 85 1007.5
20260506031556 25 208 3.2 11.3 0.00 0.00 0.00 84 1007.5
20260506030047 25 101 3.2 14.5 0.00 0.00 0.00 83 1007.3
20260506024558 25 155 0.0 6.4 0.00 0.00 0.00 82 1007.2
20260506023050 25 0 0.0 4.8 0.00 0.00 0.00 82 1006.9
20260506021547 25 0 0.0 6.4 0.00 0.00 0.00 81 1006.7
20260506020045 25 0 1.6 6.4 0.00 0.00 0.00 80 1006.4
20260506014547 25 120 0.0 6.4 0.00 0.00 0.00 79 1006.0
20260506013041 26 122 0.0 3.2 0.00 0.00 0.00 78 1006.0
20260506011547 26 124 0.0 8.0 0.00 0.00 0.00 76 1006.0
20260506010051 27 0 0.0 6.4 0.00 0.00 0.00 74 1006.1
20260506004543 27 139 0.0 4.8 0.00 0.00 0.00 72 1006.0
20260506003044 28 0 0.0 9.7 0.00 0.00 0.00 70 1006.2
20260506001550 28 163 0.0 4.8 0.00 0.00 0.00 70 1006.1
20260506000048 28 150 0.0 4.8 0.00 0.00 0.00 68 1006.1
20260505234555 28 153 0.0 8.0 0.00 0.00 0.00 67 1006.0
20260505233049 28 0 1.6 8.0 0.00 0.00 0.00 67 1005.8
20260505231559 29 117 1.6 11.3 0.00 0.00 0.00 66 1005.8
20260505230057 30 0 3.2 11.3 0.00 0.00 0.00 65 1005.8
20260505224552 30 155 3.2 11.3 0.00 0.00 0.00 64 1005.7
20260505223047 30 194 3.2 12.9 0.00 0.00 0.00 63 1005.6